TimeCST,TemperatureF,Dew PointF,Humidity,Sea Level PressureIn,VisibilityMPH,Wind Direction,Wind SpeedMPH,Gust SpeedMPH,PrecipitationIn,Events,Conditions,WindDirDegrees,DateUTC
12:15 AM,21.4,11.5,66,30.16,10.0,West,4.6,-,N/A,,Clear,280,2012-11-12 06:15:00
12:35 AM,21.0,11.8,68,30.16,10.0,WSW,3.5,-,N/A,,Clear,250,2012-11-12 06:35:00
12:55 AM,19.2,11.3,71,30.17,10.0,West,3.5,-,N/A,,Clear,270,2012-11-12 06:55:00
1:15 AM,20.3,11.7,69,30.17,10.0,WNW,8.1,-,N/A,,Clear,290,2012-11-12 07:15:00
1:35 AM,20.3,11.8,70,30.16,10.0,West,8.1,-,N/A,,Clear,280,2012-11-12 07:35:00
1:55 AM,21.9,12.2,66,30.17,10.0,West,5.8,-,N/A,,Clear,280,2012-11-12 07:55:00
2:15 AM,20.7,12.0,69,30.17,10.0,West,8.1,-,N/A,,Clear,280,2012-11-12 08:15:00
2:35 AM,20.1,12.0,71,30.17,10.0,West,6.9,-,N/A,,Clear,280,2012-11-12 08:35:00
2:55 AM,20.3,12.2,71,30.17,10.0,West,6.9,-,N/A,,Clear,280,2012-11-12 08:55:00
3:55 AM,19.4,12.0,73,30.16,10.0,West,3.5,-,N/A,,Clear,260,2012-11-12 09:55:00
4:15 AM,19.4,12.0,73,30.16,10.0,West,3.5,-,N/A,,Scattered Clouds,260,2012-11-12 10:15:00
4:35 AM,19.8,12.0,72,30.16,10.0,West,8.1,-,N/A,,Clear,270,2012-11-12 10:35:00
4:55 AM,20.5,12.2,70,30.16,10.0,West,6.9,-,N/A,,Clear,270,2012-11-12 10:55:00
5:15 AM,21.4,12.9,70,30.16,10.0,West,8.1,-,N/A,,Clear,280,2012-11-12 11:15:00
5:35 AM,21.9,12.9,68,30.17,10.0,West,8.1,-,N/A,,Clear,280,2012-11-12 11:35:00
5:55 AM,21.2,12.9,70,30.17,10.0,West,8.1,-,N/A,,Clear,280,2012-11-12 11:55:00
6:15 AM,20.3,12.7,73,30.17,10.0,WNW,8.1,-,N/A,,Clear,290,2012-11-12 12:15:00
6:55 AM,21.9,13.1,69,30.18,10.0,WNW,9.2,-,N/A,,Clear,290,2012-11-12 12:55:00
7:15 AM,21.9,13.1,69,30.19,10.0,WNW,8.1,-,N/A,,Clear,290,2012-11-12 13:15:00
7:35 AM,21.7,13.1,69,30.19,10.0,WNW,6.9,-,N/A,,Clear,290,2012-11-12 13:35:00
7:55 AM,23.7,13.8,66,30.20,10.0,West,9.2,-,N/A,,Clear,280,2012-11-12 13:55:00
8:15 AM,25.3,14.0,62,30.21,10.0,WNW,10.4,-,N/A,,Clear,290,2012-11-12 14:15:00
8:35 AM,27.0,14.5,60,30.21,10.0,West,11.5,-,N/A,,Clear,280,2012-11-12 14:35:00
8:55 AM,28.6,14.2,55,30.22,10.0,WNW,11.5,19.6,N/A,,Clear,290,2012-11-12 14:55:00
9:15 AM,29.8,14.7,53,30.24,10.0,WNW,15.0,19.6,N/A,,Clear,290,2012-11-12 15:15:00
9:35 AM,31.1,14.7,51,30.24,10.0,WNW,16.1,21.9,N/A,,Clear,300,2012-11-12 15:35:00
9:55 AM,32.9,14.7,47,30.25,10.0,NW,16.1,21.9,N/A,,Clear,310,2012-11-12 15:55:00
10:15 AM,33.4,14.2,45,30.25,10.0,NW,19.6,28.8,N/A,,Clear,310,2012-11-12 16:15:00
10:35 AM,34.0,14.0,44,30.26,10.0,NW,15.0,29.9,N/A,,Clear,310,2012-11-12 16:35:00
10:55 AM,34.3,13.3,42,30.26,10.0,WNW,20.7,26.5,N/A,,Clear,300,2012-11-12 16:55:00
11:15 AM,35.6,12.7,39,30.26,10.0,NW,21.9,27.6,N/A,,Clear,310,2012-11-12 17:15:00
11:35 AM,36.7,12.7,37,30.27,10.0,WNW,20.7,28.8,N/A,,Clear,300,2012-11-12 17:35:00
11:55 AM,37.9,12.6,35,30.26,10.0,NW,20.7,26.5,N/A,,Clear,310,2012-11-12 17:55:00
12:15 PM,38.5,11.8,34,30.26,10.0,NW,21.9,31.1,N/A,,Clear,310,2012-11-12 18:15:00
12:35 PM,39.2,12.2,33,30.25,10.0,NW,18.4,29.9,N/A,,Clear,320,2012-11-12 18:35:00
12:55 PM,40.1,12.0,32,30.25,10.0,NW,16.1,26.5,N/A,,Clear,310,2012-11-12 18:55:00
1:15 PM,39.9,11.7,31,30.25,10.0,NW,18.4,24.2,N/A,,Clear,320,2012-11-12 19:15:00
1:35 PM,41.2,11.5,30,30.25,10.0,WNW,16.1,26.5,N/A,,Clear,300,2012-11-12 19:35:00
2:15 PM,42.3,11.3,28,30.25,10.0,NW,16.1,25.3,N/A,,Clear,310,2012-11-12 20:15:00
2:35 PM,42.8,11.8,28,30.25,10.0,NW,18.4,24.2,N/A,,Clear,310,2012-11-12 20:35:00
2:55 PM,41.9,11.5,29,30.25,10.0,NW,17.3,25.3,N/A,,Clear,310,2012-11-12 20:55:00
3:15 PM,42.6,12.0,29,30.25,10.0,NW,12.7,21.9,N/A,,Clear,310,2012-11-12 21:15:00
3:35 PM,42.3,12.0,29,30.26,10.0,NW,13.8,21.9,N/A,,Clear,310,2012-11-12 21:35:00
3:55 PM,42.1,12.2,30,30.26,10.0,NW,11.5,17.3,N/A,,Clear,310,2012-11-12 21:55:00
4:15 PM,41.2,11.7,30,30.27,10.0,NW,11.5,-,N/A,,Clear,310,2012-11-12 22:15:00
4:35 PM,40.3,12.2,32,30.27,10.0,NW,9.2,-,N/A,,Clear,320,2012-11-12 22:35:00
4:55 PM,38.1,12.9,36,30.27,10.0,NNW,6.9,-,N/A,,Clear,330,2012-11-12 22:55:00
5:15 PM,34.7,13.1,41,30.28,10.0,NW,4.6,-,N/A,,Clear,320,2012-11-12 23:15:00
5:35 PM,34.2,13.6,43,30.28,10.0,Calm,Calm,-,N/A,,Clear,0,2012-11-12 23:35:00
5:55 PM,30.9,15.3,52,30.28,10.0,Calm,Calm,-,N/A,,Clear,0,2012-11-12 23:55:00
6:15 PM,30.6,15.4,54,30.28,10.0,Calm,Calm,-,N/A,,Clear,0,2012-11-13 00:15:00
6:35 PM,26.2,15.4,64,30.29,10.0,Calm,Calm,-,N/A,,Clear,0,2012-11-13 00:35:00
6:55 PM,28.4,15.3,58,30.30,10.0,Calm,Calm,-,N/A,,Clear,0,2012-11-13 00:55:00
7:15 PM,27.0,15.6,62,30.30,10.0,Calm,Calm,-,N/A,,Clear,0,2012-11-13 01:15:00
7:35 PM,23.9,16.2,72,30.30,10.0,Calm,Calm,-,N/A,,Clear,0,2012-11-13 01:35:00
7:55 PM,25.3,16.0,68,30.30,10.0,Calm,Calm,-,N/A,,Clear,0,2012-11-13 01:55:00
8:15 PM,23.4,15.6,72,30.30,10.0,Calm,Calm,-,N/A,,Clear,0,2012-11-13 02:15:00
8:35 PM,24.6,15.4,68,30.30,10.0,Calm,Calm,-,N/A,,Clear,0,2012-11-13 02:35:00
8:55 PM,20.7,15.3,80,30.31,10.0,Calm,Calm,-,N/A,,Clear,0,2012-11-13 02:55:00
9:15 PM,20.8,14.7,77,30.32,10.0,Calm,Calm,-,N/A,,Clear,0,2012-11-13 03:15:00
9:35 PM,21.9,14.9,74,30.32,10.0,Calm,Calm,-,N/A,,Clear,0,2012-11-13 03:35:00
9:55 PM,19.2,14.0,80,30.32,10.0,Calm,Calm,-,N/A,,Clear,0,2012-11-13 03:55:00
10:15 PM,20.1,14.7,80,30.32,10.0,Calm,Calm,-,N/A,,Clear,0,2012-11-13 04:15:00
10:35 PM,20.5,14.7,78,30.31,10.0,Calm,Calm,-,N/A,,Clear,0,2012-11-13 04:35:00
10:55 PM,18.0,12.7,80,30.31,10.0,Calm,Calm,-,N/A,,Clear,0,2012-11-13 04:55:00
11:15 PM,18.0,12.6,79,30.32,10.0,Calm,Calm,-,N/A,,Clear,0,2012-11-13 05:15:00
11:35 PM,18.3,13.6,82,30.32,10.0,Calm,Calm,-,N/A,,Clear,0,2012-11-13 05:35:00
11:55 PM,18.5,14.2,83,30.32,10.0,Calm,Calm,-,N/A,,Clear,0,2012-11-13 05:55:00